UNISAT-6

Last updated on Mon Sep 21 2026 00:03:14 GMT+0000 (Coordinated Universal Time)

1 40012U 14033C 26263.39193691 .00001734 00000+0 18835-3 0 9990 2 40012 97.8006 54.5300 0045888 113.9157 246.6877 14.88648565660328
UTC large
Height (km)
Speed (km/s)
/
Latitude / Longitude
Inclination (degrees)
Orbital Period (minutes)
Azimuth
Elevation
Range (km)
Doppler Factor

Next 0 passes for location: London (51.5072 / 0.1276)

No passes found over London.
UNISAT-6